User: anonymous   Login
Location: Decatur(IL)
(39.8400°N, 88.9550°W)
Time: 18:10:36
(UTC-06:00)
Language:

Cosmos 2242 Rocket - Orbit

View from above orbital plane
View from above orbital plane
View from above satellite
View from above satellite

Ground track
Ground track

The orbit data is extracted from the following two-line orbital elements,

1 22627U 93024B   17326.54295465 +.00000048 +00000-0 +33561-5 0  9991
2 22627 082.5203 313.0703 0023760 169.3659 190.8061 14.78099810325546
Epoch (UTC): 22 November 2017 13:01:51
Eccentricity: 0.0023760
inclination: 82.5203°
perigee height: 618 km
apogee height: 652 km
right ascension of ascending node: 313.0703°
argument of perigee: 169.3659°
revolutions per day: 14.78099810
mean anomaly at epoch: 190.8061°
orbit number at epoch: 32554

The dashed part of the orbit path shows where the satellite is in the earth's shadow,  

DLR